Regional Weather Roundup
Issued by NWS Green Bay, WI

Home | Current Version | Previous Version | Graphics & Text | Print | Product List | Glossary Off
Versions: 1 2 3 4 5 6 7 8 9 10 11 12 13 14 15 16 17 18 19 20 21 22 23 24 25 26 27 28 29 30 31 32 33 34 35 36 37 38 39 40 41 42 43 44 45 46 47 48 49 50

000
ASUS43 KGRB 020410
RWRGRB

NORTH-CENTRAL AND NORTHEAST WISCONSIN REGIONAL WEATHER ROUNDUP
NATIONAL WEATHER SERVICE GREEN BAY WI
1100 PM CDT WED OCT 01 2014

WIZ005-009-010>012-018-019-020500-
NORTH CENTRAL WISCONSIN

CITY           SKY/WX    TMP DP  RH WIND       PRES   REMARKS
IRONWOOD       NOT AVBL
MANITOWISH WTR CLOUDY    54  54 100 S7        29.88R FOG
ARBOR VITAE    CLOUDY    57  55  93 S8        29.88S
EAGLE RIVER    CLOUDY    54  53  97 S3        29.89R FOG
LAND O LAKES   CLOUDY    54  53  95 S5        29.90R
RHINELANDER    CLOUDY    54  51  90 S8        29.90R
PHILLIPS       CLOUDY    55  54  97 S6        29.87S
ANTIGO         CLOUDY    52  51  95 SE12      29.90F
TOMAHAWK       CLOUDY    55  52  90 S3        29.89S
MERRILL        CLOUDY    55  53  92 SE5       29.88F
$$

WIZ013-073-020500-
NORTHEAST WISCONSIN

CITY           SKY/WX    TMP DP  RH WIND       PRES   REMARKS
IRON MOUNTAIN  LGT RAIN  53  51  93 S9        29.91R
MARINETTE      NOT AVBL
OCONTO         CLOUDY    54  54 100 CALM      29.92F
$$

WIZ017-030-035>037-045-020500-
CENTRAL WISCONSIN

CITY           SKY/WX    TMP DP  RH WIND       PRES   REMARKS
MEDFORD        CLOUDY    55  53  91 SE5       29.87F
WAUSAU         CLOUDY    56  52  86 SE6       29.88S
MOSINEE        CLOUDY    54  54 100 SE5       29.89F
MARSHFIELD     CLOUDY    58  54  86 SE6       29.87S
WISC RAPIDS    RAIN      57  55  93 SE7       29.89S FOG
STEVENS POINT  LGT RAIN  54  51  91 SE6       29.89S
WAUPACA        MOCLDY    58  55  90 CALM      29.90F
SHAWANO        CLOUDY    56  53  90 CALM      29.92S
CLINTONVILLE   CLOUDY    54  52  94 CALM      29.91S
$$

WIZ038-039-048-051-020500-
FOX VALLEY

CITY           SKY/WX    TMP DP  RH WIND       PRES   REMARKS
NWS GREEN BAY  HVY RAIN  56  54  93 SE10      29.91F FOG
APPLETON       CLOUDY    57  54  88 SE12      29.91F
OSHKOSH        CLOUDY    57  55  93 SE5       29.89F
FOND DU LAC    CLOUDY    58  53  84 SE6       29.89F
$$

WIZ022-050-052-020500-
EAST CENTRAL WISCONSIN

CITY           SKY/WX    TMP DP  RH WIND       PRES   REMARKS
STURGEON BAY   NOT AVBL
MANITOWOC      NOT AVBL
SHEBOYGAN      CLOUDY    59  54  83 SE7       29.91F
$$

LMZ563-521-522-541>543-020500-
LAKESHORE

STATION/POSITION TIME  TEMP    WIND        PRES    VSBY  WAVE
                       AIR SEA DIR/SP/G                  HT/PER
                 (UTC) (F)     (DEG/KT/KT) (MB)    (MI)  (FT/S)
SHEBOYGAN LKSHOR 0400   59 56  140/ 18/ 19 1012.9F
KEWAUNEE LKSHORE 0400   55     160/  3/  4 1012.8F
TWO RIVERS CG    0300   56                 1013.4
NORTHPORT PIER   0400   56     150/  5/  8 1014.2S
N MID LAKE BUOY  0400   57 58  160/ 10/ 12 1014.5F         1/ 4
S GREEN BAY BUOY 0300   58     VRB  8/ 10  1014.4F
CHAMBERS ISLAND  0400   56     140/  3/  7 1013.9F
MENOMINEE LKSHOR 0400   57     170/  6/  9 1014.0F
$$



USA.gov is the U.S. government's official web portal to all federal, state and local government web resources and services.